Weather History for KFWN - September, 2013

Change the Weather History Date:

Thursday, September 5, 2013

  Actual Average Record
Temperature  
Mean Temperature 62 °F -  
Max Temperature 72 °F 77 °F 98 °F (1973)
Min Temperature 52 °F 53 °F 38 °F (1965)
Degree Days  
Heating Degree Days 3    
Growing Degree Days 12 (Base 50)    
Moisture  
Dew Point 52 °F    
Average Humidity 72    
Maximum Humidity 100    
Minimum Humidity 35    
Precipitation  
Precipitation 0.00 in - - ()
Sea Level Pressure  
Sea Level Pressure 30.03 in    
Wind  
Wind Speed 2 mph (NNW)    
Max Wind Speed 10 mph    
Max Gust Speed -    
Visibility 10 miles    
Events      
Averages and records for this station are not official NWS values.
T = Trace of Precipitation, MM = Missing Value Source: NWS Daily Summary

Daily Weather History Graph

Daily Weather History Graph

Search for Another Location

Airport or City:

Trip Planner

Search our weather history database for the weather conditions in past years. The results will help you decide how hot, cold, wet, or windy it might be!

Date:

Astronomy

Sep. 05, 2013 Rise Set
Actual Time 6:29 AM EDT 7:24 PM EDT
Civil Twilight 6:01 AM EDT 7:52 PM EDT
Nautical Twilight 5:27 AM EDT 8:25 PM EDT
Astronomical Twilight 4:52 AM EDT 9:00 PM EDT
Moon 6:38 AM EDT (9/5) 7:13 PM EDT (9/5)
Length of Visible Light 13h 51m
Length of Day
12h 55m
New Moon, 0% of the Moon is Illuminated
Sep 5
New Moon
Sep 12
First Quarter
Sep 19
Full
Sep 26
Last Quarter
Oct 4
New

Hourly Weather History & Observations

Time (EDT) Temp. Dew Point Humidity Pressure Visibility Wind Dir Wind Speed Gust Speed Precip Events Conditions
12:53 AM 57.0 °F 57.0 °F 100% 29.97 in 8.0 mi Calm Calm - N/A   Clear
1:53 AM 57.0 °F 57.0 °F 100% 29.96 in 10.0 mi Calm Calm - N/A   Clear
2:53 AM 55.9 °F 55.0 °F 97% 29.95 in 7.0 mi Calm Calm - N/A   Clear
3:53 AM 55.9 °F 55.9 °F 100% 29.94 in 8.0 mi Calm Calm - N/A   Clear
4:53 AM 57.0 °F 55.9 °F 96% 29.95 in 10.0 mi Calm Calm - N/A   Scattered Clouds
5:53 AM 57.9 °F 57.0 °F 97% 29.96 in 10.0 mi Calm Calm - N/A   Scattered Clouds
6:53 AM 57.9 °F 57.0 °F 97% 29.98 in 10.0 mi Calm Calm - N/A   Scattered Clouds
7:53 AM 61.0 °F 59.0 °F 93% 29.99 in 10.0 mi Calm Calm - N/A   Overcast
8:45 AM 66.2 °F 60.8 °F 83% 30.00 in 10.0 mi Calm Calm - N/A   Overcast
8:53 AM 68.0 °F 60.1 °F 76% 30.00 in 10.0 mi Variable 3.5 mph - N/A   Overcast
9:48 AM 71.6 °F 57.2 °F 60% 30.01 in 10.0 mi North 5.8 mph - N/A   Mostly Cloudy
9:53 AM 69.1 °F 57.0 °F 65% 30.01 in 10.0 mi North 10.4 mph - N/A   Mostly Cloudy
10:53 AM 70.0 °F 51.1 °F 51% 30.02 in 10.0 mi Variable 5.8 mph - N/A   Clear
11:53 AM 70.0 °F 51.1 °F 51% 30.02 in 10.0 mi Variable 6.9 mph - N/A   Clear
12:53 PM 72.0 °F 52.0 °F 49% 30.03 in 10.0 mi North 8.1 mph - N/A   Partly Cloudy
1:53 PM 71.1 °F 46.0 °F 41% 30.03 in 10.0 mi NW 6.9 mph - N/A   Clear
2:53 PM 72.0 °F 45.0 °F 38% 30.04 in 10.0 mi Variable 6.9 mph - N/A   Clear
3:53 PM 71.1 °F 42.1 °F 35% 30.04 in 10.0 mi North 8.1 mph - N/A   Clear
4:53 PM 70.0 °F 43.0 °F 38% 30.05 in 10.0 mi NW 10.4 mph - N/A   Partly Cloudy
5:53 PM 68.0 °F 45.0 °F 43% 30.07 in 10.0 mi NNW 4.6 mph - N/A   Clear
6:53 PM 64.0 °F 48.0 °F 56% 30.08 in 10.0 mi NNW 3.5 mph - N/A   Clear
7:53 PM 55.9 °F 50.0 °F 80% 30.09 in 10.0 mi Calm Calm - N/A   Clear
8:53 PM 54.0 °F 50.0 °F 86% 30.12 in 10.0 mi Calm Calm - N/A   Clear
9:53 PM 52.0 °F 50.0 °F 93% 30.15 in 10.0 mi Calm Calm - N/A   Clear
10:53 PM 54.0 °F 46.0 °F 75% 30.17 in 10.0 mi Calm Calm - N/A   Clear
11:53 PM 55.0 °F 46.0 °F 72% 30.19 in 10.0 mi Calm Calm - N/A   Clear